Погода в Сенькином

Россия / Пермский край     58°27′11″N   56°15′17″E
В апреле 2022 года жителям России запретили посещать сайт meteo.paraplan.net по решению Генеральной прокуратуры. Аудитория сайта уменьшилась в 10 раз. Владельцы сайта не видят смысла в поддержке погодного сервера в таких условиях. Сайт будет закрыт в октябре.
темп.,
°C
ветер,
м/с
пор.,
м/с
влажн.,
%
обл.,
%
осадки,
мм/ч
давл.,
гПа
погр.,
м
25 сентября, вс
вс2523:00+12в51374100 0.1 1011531
02:00+10вюв51385100 0.4 1012476
05:00+10вюв61477100 0.6 1013586
08:00+9в51382100 0.0 1014597
11:00+9в61575100 0.0 1014720
14:00+11в6156550 0.0 1013840
17:00+9в71672100 0.0 1012893
20:00+8в81867100 0.0 1010957
26 сентября, пн
пн2623:00+7в81861100 0.2 10101049
02:00+4вюв71886100 3.3 1010920
05:00+3в61693100 11.5 1011866
08:00+1в61697100 4.9 1012727
11:00+1в51596100 7.8 1014771
14:00+3вюв51185100 0.7 1015904
17:00+5в4976100 0.8 10161087
20:00+1всв3118397 0.0 1018316
27 сентября, вт
вт2723:00−1всв312812 0.0 1019352
02:00−2в311857 0.0 1020311
05:00−3в310875 0.0 1021259
08:00−2в310855 0.0 1022318
11:00+2в3668100 0.0 1022671
14:00+4в345764 0.0 10221215
17:00+5вюв2358100 0.0 1022940
20:00+1юз1176100 0.0 102313
28 сентября, ср
ср2823:00−1вюв228366 0.0 102424
02:00−2вюв228346 0.0 102530
05:00−3в228448 0.0 102534
08:00−2в27825 0.0 1027172
11:00+3вюв45635 0.0 1027852
14:00+4в3452100 0.0 10281536
17:00+4в255156 0.0 10281574
20:00−1вюв35765 0.0 1029103
29 сентября, чт
чт2923:00−2вюв39792 0.0 1031226
02:00−3вюв27825 0.0 1031141
05:00−3в27825 0.0 1031146
08:00−3в39762 0.0 1032258
11:00+2вюв47565 0.0 1032855
14:00+4вюв46495 0.0 10311234
17:00+4вюв36555 0.0 10321287
20:00−1в311765 0.0 1033299